Regional Weather Roundup
Issued by NWS

Home | Current Version | Previous Version | Graphics & Text | Print | Product List | Glossary On
Versions: 1 2 3 4 5 6 7 8 9 10 11 12 13 14 15 16 17 18 19 20 21 22 23 24 25 26 27 28 29 30 31 32 33 34 35 36 37 38 39 40 41 42 43 44 45 46 47 48 49 50
876
ASUS43 KOAX 270410
RWRNE

WEATHER ROUNDUP FOR NEBRASKA
NATIONAL WEATHER SERVICE OMAHA NE
1100 PM CDT SAT MAY 26 2018

NOTES: SATELLITE DATA IS BEING USED TO AUGMENT CLOUD COVER ABOVE
       12000 FEET.
       "FAIR" INDICATES FEW OR NO CLOUDS BELOW 12,000 FEET WITH NO
       SIGNIFICANT WEATHER AND/OR OBSTRUCTIONS TO VISIBILITY.


NEZ001>004-019>022-054>056-270500-
NEBRASKA PANHANDLE

CITY           SKY/WX    TMP DP  RH WIND       PRES   REMARKS
SCOTTSBLUFF    CLOUDY    78  49  35 SE15      29.75R
ALLIANCE       CLOUDY    73  51  46 SE14      29.77R
CHADRON        CLOUDY    81  47  30 S24G30    29.69S
GORDON         FAIR      65  55  70 SE7       29.77S
KIMBALL        CLOUDY    74  42  32 S16       29.83R
SIDNEY         CLOUDY    76  44  32 S20G26    29.82R
$$

NEZ057>060-069>072-079>082-270500-
SOUTHWEST NEBRASKA

CITY           SKY/WX    TMP DP  RH WIND       PRES   REMARKS
NORTH PLATTE   PTCLDY    74  54  49 SE9       29.81R
IMPERIAL       CLOUDY    77  46  33 SE15      29.81R
LEXINGTON      PTCLDY    76  58  54 SE9       29.82R
MCCOOK         MOCLDY    79  52  38 S13G22    29.81R
OGALLALA       CLOUDY    78  46  31 SE13G18   29.79S
$$

NEZ005>010-023>029-035>040-094-270500-
NORTH CENTRAL NEBRASKA

CITY           SKY/WX    TMP DP  RH WIND       PRES   REMARKS
VALENTINE      PTCLDY    81  60  48 S16       29.76R
AINSWORTH      PTCLDY    77  62  58 SE10      29.79R
BROKEN BOW     CLEAR     75  58  55 SE8       29.81R
O`NEILL        PTCLDY    80  63  55 SE7       29.79S
ORD            PTCLDY    72  62  71 SW7       29.78R
THEDFORD       PTCLDY    74  60  61 SE10      29.81R
$$

NEZ041-046>049-061>064-073>077-083>087-270500-
SOUTH CENTRAL NEBRASKA

CITY           SKY/WX    TMP DP  RH WIND       PRES   REMARKS
GRAND ISLAND   CLEAR     82  58  43 SW10      29.80R
AURORA         CLEAR     80  56  43 SW9       29.79S
HASTINGS       CLEAR     81  57  43 S6        29.83R
HEBRON         PTCLDY    83  60  46 S8        29.80R
HOLDREGE       CLOUDY    77  59  53 S9        29.83R
KEARNEY        PTCLDY    79  59  50 S13       29.82R
YORK           CLEAR     82  57  42 S6        29.79S
$$

NEZ011>018-030>034-042>045-270500-
NORTHEAST NEBRASKA

CITY           SKY/WX    TMP DP  RH WIND       PRES   REMARKS
NORFOLK        PTCLDY    77  57  50 SE8       29.76S
ALBION         CLOUDY    73  66  79 CALM      29.80R
BLAIR          CLEAR     82  57  43 E6        29.78R
COLUMBUS       CLEAR     79  61  53 E6        29.78R
FREMONT        CLEAR     81  60  48 SE5       29.78R
TEKAMAH        CLEAR     75  61  61 SW5       29.76R
WAYNE          CLEAR     76  57  51 SE6       29.78S
$$

NEZ050>053-065>068-078-088>093-270500-
SOUTHEAST NEBRASKA

CITY           SKY/WX    TMP DP  RH WIND       PRES   REMARKS
LINCOLN        CLEAR     82  60  47 S5        29.78R
OMAHA EPPLEY   CLEAR     76  66  71 CALM      29.76R
BEATRICE       CLEAR     85  63  47 CALM      29.78S
FALLS CITY     CLEAR     85  60  42 SW9       29.78R
NEBRASKA CITY  CLEAR     87  56  35 SE5       29.79R
$$

NEZ044-045-051>053-067-270500-
OMAHA AREA

CITY           SKY/WX    TMP DP  RH WIND       PRES   REMARKS
OMAHA EPPLEY   CLEAR     76  66  71 CALM      29.76R
BLAIR          CLEAR     82  57  43 E6        29.78R
FREMONT        CLEAR     81  60  48 SE5       29.78R
MILLARD        CLEAR     78  62  58 CALM      29.77R
OFFUTT AFB     CLEAR     70  63  78 CALM      29.76R
WAHOO          FAIR      80  55  43 S6        29.78R
$$




USA.gov is the U.S. government's official web portal to all federal, state and local government web resources and services.